Date,TemperatureHighF,TemperatureAvgF,TemperatureLowF,DewpointHighF,DewpointAvgF,DewpointLowF,HumidityHigh,HumidityAvg,HumidityLow,PressureMaxIn,PressureMinIn,WindSpeedMaxMPH,WindSpeedAvgMPH,GustSpeedMaxMPH,PrecipitationSumIn
2013-1-1,62,49,39,38,33,24,86,59,25,30.22,30.08,2,0,5,0.00
2013-1-2,65,50,37,36,30,24,74,50,22,30.12,30.01,1,0,5,0.00
2013-1-3,72,52,37,35,29,23,74,47,16,30.16,30.03,1,0,5,0.00
2013-1-4,69,51,36,30,24,12,67,41,11,30.26,30.14,2,0,5,0.00
2013-1-5,68,51,36,41,29,19,74,47,16,30.28,30.15,1,0,4,0.00
2013-1-6,60,51,45,50,43,35,92,76,54,30.17,30.00,2,0,8,0.11
2013-1-7,63,50,43,42,35,30,88,59,30,30.07,29.96,2,0,7,0.01
2013-1-10,45,44,43,31,30,28,62,57,53,30.06,30.03,2,1,7,0.13
2013-1-11,57,48,37,31,24,16,66,41,22,30.16,30.03,3,1,10,0.11
2013-1-12,58,46,35,28,24,17,66,45,20,30.14,30.04,2,0,7,0.00
2013-1-13,59,45,33,28,24,16,71,47,19,30.16,30.03,3,0,8,0.00
2013-1-14,58,46,33,21,11,1,48,26,10,30.32,30.11,4,0,12,0.00
2013-1-15,61,47,33,30,20,11,59,38,15,30.44,30.31,2,0,5,0.00
2013-1-16,70,52,38,34,30,26,65,45,21,30.34,30.11,1,0,5,0.00
2013-1-17,77,58,39,37,28,20,69,38,12,30.16,30.03,0,0,5,0.00
2013-1-18,79,58,42,32,26,17,57,33,10,30.14,30.03,1,0,5,0.00
2013-1-19,79,59,42,32,25,14,55,31,9,30.17,30.05,1,0,6,0.00
2013-1-20,79,60,43,29,21,12,43,25,8,30.12,29.97,1,0,3,0.00
2013-1-21,82,62,43,30,20,-1,47,23,4,30.08,29.96,1,0,5,0.00
2013-1-22,81,60,42,33,22,4,48,26,5,30.09,29.98,1,0,6,0.00
2013-1-23,78,64,53,47,33,23,63,32,20,30.11,29.98,2,0,6,0.00
2013-1-24,65,59,55,56,54,47,92,84,68,30.17,30.06,4,0,8,0.87
2013-1-25,63,59,57,60,56,54,92,90,86,30.11,29.93,1,0,4,0.20
2013-1-26,73,61,55,60,55,53,94,82,59,29.96,29.85,2,0,8,0.03
2013-1-27,63,55,45,54,48,35,94,81,60,29.99,29.91,3,0,9,0.09
2013-1-28,62,52,43,35,30,24,70,46,27,30.16,29.99,3,1,9,0.02
2013-1-29,62,52,41,41,35,28,82,55,37,30.20,30.12,3,0,8,0.00
2013-1-30,71,55,41,44,41,37,88,63,36,30.32,30.18,1,0,6,0.00
2013-1-31,80,64,43,46,42,37,88,48,22,30.20,30.05,3,0,7,0.00
2013-2-1,79,61,47,49,43,38,74,54,25,30.14,30.07,1,0,5,0.00
2013-2-2,63,63,63,48,47,47,58,56,55,30.12,30.11,1,0,3,0.00
2013-2-3,81,66,53,50,46,36,78,52,21,30.12,29.94,2,0,7,0.00
2013-2-4,75,59,46,53,47,41,90,68,38,30.05,29.93,2,0,6,0.00
2013-2-5,63,55,50,52,50,47,92,83,66,30.07,29.96,2,0,5,0.00
2013-2-6,67,57,49,50,48,44,88,74,50,30.08,29.97,1,0,6,0.00
2013-2-7,66,53,43,50,45,41,93,75,55,30.11,29.96,2,0,7,0.00
2013-2-8,59,49,40,44,40,36,88,71,49,29.96,29.84,4,0,12,0.08
2013-2-9,60,48,36,40,37,34,92,67,40,30.08,29.90,1,0,6,0.03
2013-2-10,63,50,39,43,39,36,90,69,47,30.09,29.98,2,0,7,0.00
2013-2-11,65,50,38,41,33,8,89,58,11,30.22,30.03,4,0,12,0.00
2013-2-12,68,51,36,40,32,20,79,53,18,30.33,30.21,3,0,7,0.00
2013-2-13,72,54,38,42,35,28,82,53,20,30.24,30.11,2,0,7,0.00
2013-2-14,77,58,41,44,37,33,78,51,21,30.17,30.03,1,0,5,0.00
2013-2-15,81,63,44,43,33,22,72,39,13,30.16,30.09,1,0,8,0.00
2013-2-16,84,63,44,33,26,16,57,30,8,30.14,29.94,3,0,8,0.00
2013-2-17,72,57,43,51,40,29,85,54,27,30.00,29.88,2,0,9,0.00
2013-2-18,67,56,52,48,46,44,82,70,46,30.03,29.91,1,0,6,0.00
2013-2-19,47,46,46,44,42,42,88,86,85,29.71,29.68,0,0,3,0.25
2013-2-20,66,52,38,42,32,23,88,52,24,29.98,29.67,4,1,10,0.17
2013-2-21,64,51,39,42,37,30,86,59,34,30.06,29.94,3,0,10,0.00
2013-2-22,70,54,37,39,34,32,81,52,25,30.17,30.06,2,0,9,0.00
2013-2-23,69,54,39,47,40,29,82,61,33,30.14,29.89,4,0,13,0.00
2013-2-24,70,58,45,45,26,4,76,32,12,30.17,29.95,7,1,18,0.00
2013-2-25,73,55,39,34,27,15,60,38,11,30.20,30.04,3,0,8,0.00
2013-2-26,75,56,37,37,33,28,79,47,18,30.09,29.95,2,0,7,0.00
2013-2-27,78,59,44,34,26,18,59,32,11,30.24,30.09,2,0,8,0.00
2013-2-28,80,62,43,32,23,13,51,27,8,30.29,30.20,1,0,6,0.00
2013-3-1,88,68,47,35,28,21,51,27,9,30.27,30.10,2,0,7,0.00
2013-3-2,87,68,50,38,33,23,54,31,10,30.17,30.02,2,0,7,0.00
2013-3-3,74,62,55,53,44,33,86,54,31,30.06,29.93,2,0,7,0.00
2013-3-4,72,60,52,52,50,48,88,72,47,30.07,29.97,2,0,7,0.00
2013-3-5,67,57,51,53,50,47,89,77,57,30.09,29.98,3,0,8,0.00
2013-3-6,68,57,51,49,46,43,84,66,44,30.12,29.98,3,0,9,0.00
2013-3-7,63,55,52,50,47,41,90,74,47,29.98,29.81,2,1,8,0.02
2013-3-8,61,51,44,48,44,40,91,76,51,29.99,29.75,2,0,7,0.01
2013-3-9,70,57,45,47,44,40,89,66,40,30.19,29.99,3,0,10,0.00
2013-3-10,74,59,42,46,42,36,91,58,28,30.23,30.11,2,0,7,0.00
2013-3-11,81,62,43,49,40,30,82,51,17,30.15,30.00,1,0,7,0.00
2013-3-12,86,65,46,48,43,36,81,51,18,30.05,29.96,2,0,6,0.00
2013-3-13,93,70,50,54,44,38,70,45,15,30.08,29.96,2,0,7,0.00
2013-3-14,94,70,52,54,50,45,83,54,19,30.04,29.95,2,0,6,0.00
2013-3-15,82,66,54,57,53,50,87,66,34,30.00,29.89,2,0,7,0.00
2013-3-16,73,59,53,54,51,50,91,77,46,29.93,29.84,2,0,8,0.00
2013-3-17,71,60,52,54,51,49,89,74,51,29.96,29.89,2,0,9,0.00
2013-3-18,72,60,54,53,51,49,87,74,51,30.04,29.95,2,0,7,0.00
2013-3-19,72,58,49,54,50,46,92,77,53,30.10,30.01,2,0,6,0.00
2013-3-20,74,62,52,55,52,49,90,72,46,30.07,29.92,2,0,6,0.00
2013-3-21,77,63,52,53,51,46,87,68,42,29.92,29.76,2,0,8,0.00
2013-3-22,77,62,53,55,50,41,87,68,44,29.87,29.77,3,0,9,0.00
2013-3-23,77,61,47,53,49,43,90,66,36,29.97,29.87,2,0,9,0.00
2013-3-24,82,63,49,54,50,43,91,65,26,29.98,29.84,2,0,7,0.00
2013-3-25,81,65,49,55,50,46,89,63,34,29.94,29.84,2,0,7,0.00
2013-3-26,77,61,52,54,51,46,90,71,42,29.93,29.85,2,0,9,0.00
2013-3-27,75,61,54,54,52,50,86,72,44,30.01,29.89,3,0,8,0.00
2013-3-28,80,64,54,56,53,50,86,70,40,30.03,29.96,2,0,9,0.00
2013-3-29,81,63,52,57,53,49,92,73,41,30.07,29.98,3,0,7,0.00
2013-3-30,78,63,54,57,51,-100,90,71,42,30.09,30.00,3,0,8,0.00
2013-3-31,70,61,55,58,53,50,87,77,59,30.09,30.05,2,0,9,0.00
2013-4-1,56,55,54,49,49,48,82,80,77,30.03,30.03,0,0,1,0.00
2013-4-2,77,62,51,55,52,48,92,72,43,30.06,29.94,3,0,9,0.00
2013-4-3,82,64,51,57,53,48,91,70,37,30.06,29.93,3,0,7,0.00
2013-4-4,79,64,56,57,54,52,90,72,46,30.07,29.96,2,0,6,0.00
2013-4-5,76,64,58,58,55,52,86,72,52,30.04,29.95,2,0,11,0.00
2013-4-6,78,64,56,56,54,52,88,71,45,30.04,29.91,3,0,10,0.00
2013-4-7,76,62,53,57,53,49,90,72,50,29.93,29.77,2,1,8,0.00
2013-4-8,72,63,57,54,42,30,84,52,23,29.79,29.62,4,1,16,0.00
2013-4-9,80,66,51,37,31,16,49,30,9,29.96,29.78,4,1,12,0.00
2013-4-10,86,68,51,44,35,27,62,33,15,30.05,29.93,2,0,9,0.00
2013-4-11,83,66,51,54,44,34,80,49,19,29.96,29.73,3,0,10,0.00
2013-4-12,79,63,56,55,52,50,85,70,42,29.85,29.73,2,0,7,0.00
2013-4-13,71,60,55,55,53,51,88,77,58,29.88,29.80,2,0,8,0.00
2013-4-14,69,59,54,53,51,49,87,76,55,29.85,29.78,2,0,7,0.00
2013-4-15,68,59,53,53,51,45,91,76,58,29.86,29.79,3,0,10,0.00
2013-4-16,73,62,49,48,34,20,85,43,14,29.95,29.83,5,1,12,0.00
2013-4-17,77,63,48,32,25,7,54,27,7,30.09,29.96,5,1,15,0.00
2013-4-18,83,67,48,35,24,15,48,23,9,30.16,30.08,3,0,9,0.00
2013-4-19,89,69,48,43,28,13,54,27,7,30.13,29.92,3,0,10,0.00
2013-4-20,92,72,53,51,45,32,70,42,12,29.95,29.83,2,0,8,0.00
2013-4-21,87,71,54,56,50,44,85,52,24,29.96,29.87,3,0,10,0.00
2013-4-22,81,65,58,56,54,50,85,68,39,29.96,29.84,3,0,9,0.00
2013-4-23,82,66,57,54,52,50,84,64,36,29.93,29.80,4,0,9,0.00
2013-4-24,64,60,57,55,53,50,85,78,71,29.95,29.86,2,0,7,0.00
2013-4-25,78,65,57,52,50,46,77,61,36,30.07,29.93,3,0,8,0.00
2013-4-26,83,66,50,54,50,46,86,60,35,30.11,30.04,2,0,9,0.00
2013-4-27,81,67,53,57,53,49,87,64,42,30.11,29.94,3,0,7,0.00
2013-4-28,83,66,55,59,55,52,91,71,42,29.98,29.81,3,0,9,0.00
2013-4-29,81,66,58,59,56,54,89,71,46,29.86,29.73,3,0,8,0.00
2013-4-30,74,64,58,56,54,52,84,71,51,29.85,29.77,2,0,9,0.00
2013-5-1,82,67,59,57,55,53,82,66,40,30.06,29.85,2,0,8,0.00
2013-5-2,95,75,53,59,39,-1,92,43,4,30.08,29.94,2,0,9,0.00
2013-5-3,100,79,57,35,22,-4,35,17,2,29.97,29.72,3,0,9,0.00
2013-5-4,80,68,57,57,50,30,84,54,25,29.80,29.69,3,1,10,0.00
2013-5-5,68,62,57,53,51,49,84,69,54,29.91,29.79,4,2,13,0.00
2013-5-6,68,60,55,58,54,50,93,79,56,29.98,29.86,3,1,7,0.02
2013-5-7,74,64,55,56,52,48,93,69,43,30.03,29.95,3,0,7,0.28
2013-5-8,79,65,57,55,52,48,85,63,36,30.05,30.02,2,0,10,0.01
2013-5-9,81,65,54,57,53,49,85,67,42,30.06,29.97,2,0,8,0.02
2013-5-10,82,67,56,61,55,-100,91,71,47,30.05,29.95,2,0,7,0.02
2013-5-11,93,73,57,63,58,-100,90,64,33,30.03,29.92,3,0,6,0.00
2013-5-12,98,80,62,63,59,53,85,53,24,30.01,29.84,3,0,7,0.00
2013-5-13,102,85,65,60,52,35,69,37,16,29.91,29.79,3,0,8,0.00
2013-5-14,86,72,62,59,54,41,74,54,28,29.95,29.84,3,1,9,0.00
2013-5-15,81,68,58,58,55,51,85,66,44,29.99,29.89,2,0,7,0.00
2013-5-16,78,62,60,58,39,-100,82,69,48,29.94,29.85,2,0,7,0.00
2013-5-17,80,68,60,59,51,-100,79,66,46,29.95,29.87,3,0,9,0.00
2013-5-18,81,68,59,58,55,53,83,64,45,29.99,29.91,2,0,8,0.00
2013-5-19,83,69,57,60,56,50,82,65,44,29.95,29.83,2,0,9,0.00
2013-5-20,89,73,57,61,58,53,87,62,35,29.91,29.83,3,0,8,0.00
2013-5-21,86,71,62,62,60,57,86,70,43,29.90,29.78,2,0,9,0.00
2013-5-22,81,68,62,59,56,49,87,67,45,29.81,29.72,2,0,10,0.00
2013-5-23,78,67,60,56,53,49,81,62,45,29.89,29.78,2,0,9,0.00
2013-5-24,79,67,57,57,53,49,78,62,43,29.94,29.87,2,0,9,0.00
2013-5-25,79,66,57,57,53,51,82,66,44,29.98,29.92,4,0,8,0.00
2013-5-26,79,67,56,58,54,51,85,65,43,30.00,29.94,3,0,10,0.00
2013-5-27,82,68,58,59,56,52,86,66,44,29.97,29.81,2,0,9,0.00
2013-5-28,84,70,60,60,57,43,84,65,30,29.85,29.68,3,1,9,0.00
2013-5-29,84,72,61,62,58,56,87,65,41,29.76,29.65,2,1,7,0.00
2013-5-30,87,72,60,62,60,55,86,68,44,29.83,29.72,2,0,8,0.00
2013-5-31,85,72,64,62,60,58,83,69,45,29.87,29.76,2,0,8,0.00
2013-6-1,90,73,62,65,61,57,88,69,42,29.81,29.69,2,0,8,0.00
2013-6-2,83,71,64,63,60,57,86,71,50,29.78,29.72,3,0,9,0.00
2013-6-3,81,69,63,60,57,56,78,68,47,29.85,29.76,3,0,8,0.00
2013-6-4,80,68,62,59,57,56,83,70,49,29.93,29.84,2,0,9,0.00
2013-6-5,79,68,61,60,57,55,84,70,50,29.96,29.85,3,0,10,0.00
2013-6-6,79,66,59,61,58,55,89,76,54,29.91,29.82,2,0,9,0.00
2013-6-7,79,66,60,62,58,56,87,76,56,29.88,29.74,2,0,7,0.00
2013-6-8,83,70,62,62,59,57,85,71,48,29.86,29.75,3,0,9,0.00
2013-6-9,82,69,62,62,59,56,83,70,50,29.88,29.81,2,0,9,0.00
2013-6-10,84,70,62,58,57,56,84,65,40,29.91,29.85,2,0,9,0.00
2013-6-11,90,72,59,62,59,55,90,66,33,29.89,29.83,3,0,8,0.00
2013-6-12,80,68,63,63,60,57,87,74,55,29.97,29.88,2,0,10,0.00
2013-6-13,84,70,63,61,59,57,84,69,46,29.96,29.85,3,0,9,0.00
2013-6-14,84,69,60,61,58,55,87,70,45,29.88,29.79,3,0,10,0.00
2013-6-15,83,69,61,59,57,56,86,68,43,29.93,29.84,2,0,12,0.00
2013-6-16,85,69,60,60,57,55,87,68,42,29.99,29.89,3,0,8,0.00
2013-6-17,84,70,57,61,58,53,88,67,43,29.94,29.83,4,0,10,0.00
2013-6-18,88,71,60,62,58,53,87,65,41,29.88,29.78,2,0,9,0.00
2013-6-19,83,71,58,60,56,52,82,60,42,29.83,29.74,3,0,8,0.00
2013-6-20,87,70,58,61,55,50,82,62,40,29.82,29.76,2,0,9,0.00
2013-6-21,86,82,76,60,58,57,52,45,41,29.83,29.78,2,1,9,0.00
2013-6-22,85,77,60,61,59,54,81,54,42,29.86,29.76,3,1,7,0.00
2013-6-23,81,70,63,60,58,56,85,68,48,29.83,29.74,2,0,8,0.00
2013-6-24,80,69,63,60,58,57,83,70,51,29.90,29.79,2,0,6,0.00
2013-6-25,81,70,63,63,60,58,87,74,55,29.96,29.85,2,0,10,0.00
2013-6-26,93,78,63,66,62,59,89,61,41,29.93,29.85,3,0,7,0.00
2013-6-27,99,81,65,67,64,60,88,59,34,29.97,29.90,2,0,8,0.00
2013-6-28,97,82,66,67,64,61,87,56,34,29.93,29.81,2,0,8,0.00
2013-6-29,101,83,69,67,63,61,78,54,32,29.83,29.68,3,0,7,0.00
2013-6-30,101,83,70,68,64,60,71,54,33,29.77,29.65,3,0,8,0.00
2013-7-1,99,80,69,67,64,61,81,60,30,29.83,29.75,3,0,9,0.00
2013-7-2,92,78,68,68,65,62,84,65,45,29.93,29.82,3,0,8,0.00
2013-7-3,93,76,65,67,63,60,90,66,39,29.88,29.74,2,0,8,0.00
2013-7-4,92,75,64,66,62,60,89,67,39,29.78,29.69,3,0,7,0.00
2013-7-5,89,74,65,65,62,60,87,69,41,29.80,29.70,2,0,9,0.00
2013-7-6,91,73,66,66,62,61,85,72,42,29.79,29.70,2,0,10,0.00
2013-7-7,87,74,65,66,63,60,87,70,49,29.82,29.71,3,1,10,0.00
2013-7-8,91,74,61,65,60,-100,92,66,39,29.87,29.80,3,0,8,0.00
2013-7-9,96,79,64,66,62,56,79,59,37,29.93,29.84,4,0,10,0.00
2013-7-10,85,75,69,66,60,-100,77,63,46,29.93,29.84,2,0,7,0.00
2013-7-11,79,73,68,67,66,63,91,77,64,29.92,29.84,1,0,5,0.06
2013-7-12,90,75,66,68,64,58,87,70,46,29.89,29.79,2,0,9,0.02
2013-7-13,89,74,62,65,61,58,89,68,43,29.91,29.80,2,0,8,0.00
2013-7-14,91,75,62,65,60,57,87,63,39,29.89,29.77,2,0,7,0.00
2013-7-15,92,76,64,65,59,52,86,59,37,29.82,29.73,3,0,7,0.00
2013-7-16,91,74,58,59,54,45,84,54,24,29.93,29.81,3,0,8,0.00
2013-7-17,92,76,58,56,51,42,71,45,18,29.97,29.89,3,0,7,0.00
2013-7-18,90,74,60,63,57,51,82,57,35,29.93,29.80,2,0,8,0.00
2013-7-19,89,74,61,64,60,56,86,63,43,29.85,29.77,2,0,10,0.00
2013-7-20,87,72,65,66,61,-100,84,71,49,29.85,29.72,2,0,10,0.00
2013-7-21,77,71,66,65,63,61,84,75,66,29.88,29.77,2,0,7,0.00
2013-7-22,91,75,66,67,64,61,88,69,44,29.93,29.86,3,0,9,0.00
2013-7-23,85,74,65,64,61,59,87,66,46,29.97,29.87,3,0,8,0.00
2013-7-24,86,72,63,64,61,59,89,69,47,29.93,29.83,3,0,7,0.00
2013-7-25,88,73,62,65,61,58,88,68,46,29.97,29.87,3,0,9,0.00
2013-7-26,85,73,65,65,62,59,84,70,51,30.04,29.91,3,0,6,0.00
2013-7-27,87,73,63,65,61,58,85,67,46,29.97,29.82,3,0,8,0.00
2013-7-28,83,69,62,64,60,57,88,74,52,29.89,29.82,2,0,7,0.00
2013-7-29,86,70,63,62,59,56,84,69,43,29.99,29.88,3,0,8,0.00
2013-7-30,84,70,60,62,58,56,88,68,45,30.07,29.98,2,0,8,0.00
2013-7-31,81,68,60,61,58,55,88,72,50,30.06,29.94,2,0,9,0.00
2013-8-1,81,67,61,61,58,56,86,73,49,29.99,29.86,2,0,8,0.00
2013-8-2,83,70,61,62,59,56,87,70,47,29.93,29.85,2,0,8,0.00
2013-8-3,87,71,62,64,60,58,88,71,44,29.96,29.87,3,0,8,0.00
2013-8-4,83,70,60,62,59,57,90,72,48,29.97,29.87,3,0,7,0.00
2013-8-5,86,69,58,62,57,53,93,70,36,29.96,29.87,2,0,8,0.00
2013-8-6,84,71,60,61,58,55,87,66,41,29.98,29.92,2,0,9,0.00
2013-8-7,85,69,59,61,58,56,90,70,41,30.03,29.92,2,0,8,0.00
2013-8-8,85,70,58,62,58,54,90,68,42,29.95,29.85,2,0,9,0.00
2013-8-9,84,68,59,60,58,54,89,71,42,29.92,29.86,3,0,7,0.00
2013-8-10,84,70,60,61,58,55,88,69,45,29.99,29.90,3,0,8,0.00
2013-8-11,86,71,58,62,58,54,91,67,39,29.95,29.83,3,0,8,0.00
2013-8-12,87,70,60,62,59,56,89,71,41,29.93,29.83,2,0,8,0.00
2013-8-13,88,73,61,64,59,-100,88,67,43,29.93,29.80,3,0,7,0.00
2013-8-14,90,72,62,65,61,58,90,71,43,29.88,29.77,3,0,7,0.00
2013-8-15,92,68,62,66,46,-100,91,62,32,29.90,29.82,3,0,6,0.00
2013-8-16,93,75,64,64,57,-100,88,60,32,29.90,29.83,3,0,8,0.00
2013-8-17,90,75,64,63,58,-100,79,60,34,29.89,29.76,3,0,7,0.00
2013-8-18,88,74,62,64,61,56,85,67,43,29.85,29.76,2,0,8,0.00
2013-8-19,86,70,64,65,53,-100,86,70,48,29.89,29.79,2,0,9,0.00
2013-8-20,86,72,62,64,59,-100,91,69,42,29.88,29.78,2,0,8,0.00
2013-8-21,91,76,61,64,59,55,87,60,34,29.87,29.77,3,0,7,0.00
2013-8-22,94,80,63,60,56,49,78,48,24,29.88,29.74,3,0,6,0.00
2013-8-23,96,77,61,59,56,52,73,52,25,29.82,29.67,2,0,6,0.00
2013-8-24,91,72,59,59,54,-100,81,59,30,29.83,29.70,2,0,7,0.00
2013-8-25,92,75,60,63,56,52,83,55,28,29.86,29.78,2,0,7,0.00
2013-8-26,98,82,66,66,56,50,60,43,30,29.87,29.75,2,0,9,0.00
2013-8-27,94,79,73,64,59,50,63,50,36,29.78,29.73,1,0,5,0.00
2013-8-28,97,89,76,63,59,52,57,37,31,29.84,29.73,2,1,6,0.00
2013-8-29,105,85,69,62,58,53,72,43,23,29.88,29.80,3,0,8,0.00
2013-8-30,102,87,75,70,64,56,59,47,33,29.91,29.84,2,0,8,0.00
2013-8-31,97,84,76,71,66,-100,73,56,42,29.91,29.80,3,0,8,0.00
2013-9-1,94,80,72,71,67,64,78,65,46,29.88,29.78,2,0,7,0.00
2013-9-2,94,80,68,71,67,64,91,67,43,29.86,29.74,2,0,6,0.00
2013-9-3,101,84,71,69,65,60,83,57,28,29.84,29.75,2,0,7,0.00
2013-9-4,102,85,71,67,63,58,74,50,27,29.84,29.76,4,0,7,0.00
2013-9-5,103,85,72,66,60,56,68,46,23,29.82,29.74,1,0,6,0.00
2013-9-6,105,84,70,61,57,53,65,44,21,29.81,29.71,2,0,7,0.00
2013-9-7,104,81,71,61,55,-100,66,45,23,29.80,29.72,2,0,7,0.00
2013-9-8,93,77,65,63,58,54,73,55,35,29.79,29.69,3,0,11,0.00
2013-9-9,86,72,65,62,60,56,82,67,43,29.77,29.69,3,0,9,0.00
2013-9-10,84,69,60,61,59,57,90,72,44,29.90,29.76,2,0,7,0.00
2013-9-11,83,69,60,61,59,56,89,72,46,29.96,29.86,2,0,7,0.00
2013-9-12,88,73,59,62,58,54,90,64,32,29.90,29.77,2,0,6,0.00
2013-9-13,89,74,60,63,57,53,79,58,34,29.79,29.61,3,0,7,0.00
2013-9-14,92,76,63,63,56,-100,76,55,32,29.67,29.57,2,0,8,0.00
2013-9-15,95,78,64,63,59,57,80,56,33,29.72,29.63,2,0,6,0.00
2013-9-16,97,75,63,62,58,56,78,59,28,29.76,29.67,3,0,6,0.00
2013-9-17,86,70,60,63,59,54,84,70,42,29.77,29.67,2,0,8,0.00
2013-9-18,68,65,62,60,59,57,88,83,74,29.74,29.71,0,0,3,0.00
2013-9-19,85,69,59,64,59,55,90,73,48,29.79,29.70,2,0,7,0.00
2013-9-20,77,68,64,63,61,59,85,77,61,29.85,29.78,3,0,8,0.00
2013-9-21,81,68,63,60,57,-100,86,71,48,29.87,29.75,3,0,7,0.00
2013-9-22,83,69,56,59,54,48,89,63,32,29.80,29.73,2,0,8,0.00
2013-9-23,97,75,55,55,48,38,81,45,15,29.84,29.76,2,0,8,0.00
2013-9-24,92,75,59,56,49,43,68,44,20,29.88,29.78,3,0,8,0.00
2013-9-25,81,70,59,61,56,48,79,61,47,29.81,29.65,3,1,12,0.00
2013-9-26,82,69,59,55,44,31,79,45,16,29.84,29.68,5,1,11,0.00
2013-9-27,87,69,52,47,40,32,70,37,20,29.95,29.84,2,0,8,0.00
2013-9-28,92,72,53,42,33,-100,57,29,9,29.99,29.91,3,0,10,0.00
2013-9-29,91,72,54,50,40,26,53,34,10,30.02,29.91,2,0,10,0.00
2013-9-30,87,72,54,57,47,40,65,44,22,29.96,29.80,2,0,7,0.00
2013-10-1,79,71,65,61,59,57,80,68,51,29.88,29.81,2,0,5,0.00
2013-10-2,81,68,63,60,58,56,85,72,46,29.93,29.83,2,0,6,0.00
2013-10-3,80,68,60,60,58,55,89,72,49,29.89,29.77,3,0,8,0.00
2013-10-4,89,73,60,59,42,2,85,46,5,29.99,29.84,2,0,8,0.00
2013-10-5,93,77,58,37,26,14,40,18,6,30.07,29.97,3,1,12,0.00
2013-10-6,96,74,55,35,26,9,39,21,4,30.05,29.91,2,0,7,0.00
2013-10-7,89,70,57,55,38,25,67,35,11,29.93,29.84,1,0,8,0.00
2013-10-8,79,66,53,57,53,42,83,64,42,29.89,29.77,3,0,10,0.00
2013-10-9,63,60,53,54,50,46,85,72,59,29.78,29.66,2,0,8,0.09
2013-10-10,74,60,47,51,47,44,91,67,34,29.98,29.76,2,0,8,0.07
2013-10-11,79,63,48,53,49,45,90,65,35,30.01,29.90,1,0,5,0.00
2013-10-12,80,64,50,57,49,-100,86,63,38,29.93,29.84,2,0,8,0.00
2013-10-13,76,64,57,55,53,50,84,68,44,29.98,29.89,2,0,8,0.00
2013-10-14,87,67,51,53,46,35,91,55,17,29.99,29.85,1,0,7,0.00
2013-10-15,89,72,53,41,36,32,56,31,13,29.93,29.82,2,0,7,0.00
2013-10-16,89,71,56,39,33,25,51,29,12,30.03,29.93,3,0,9,0.00
2013-10-17,86,68,51,48,38,30,60,37,14,30.00,29.87,2,0,8,0.00
2013-10-18,88,68,51,54,45,39,70,47,19,29.97,29.88,2,0,5,0.00
2013-10-19,90,69,52,55,43,-100,68,46,12,29.98,29.90,2,0,5,0.00
2013-10-20,80,65,51,58,50,41,86,60,33,29.94,29.85,2,0,7,0.00
2013-10-21,80,64,51,57,53,48,93,71,41,29.94,29.85,2,0,8,0.00
2013-10-22,78,63,50,58,53,46,89,71,46,29.96,29.85,2,0,7,0.00
2013-10-23,73,62,56,57,55,53,91,79,56,29.93,29.85,1,0,7,0.00
2013-10-24,74,64,60,57,55,54,83,73,52,30.00,29.91,2,0,8,0.00
2013-10-25,76,65,55,59,56,52,91,74,53,30.09,29.96,2,0,5,0.00
2013-10-26,85,65,52,59,53,-100,93,72,40,30.05,29.91,2,0,5,0.00
2013-10-27,75,62,51,60,55,48,90,77,57,29.94,29.78,2,0,7,0.00
2013-10-28,71,60,55,55,49,-100,86,70,46,29.90,29.77,3,1,14,0.01
2013-10-29,69,58,48,51,48,44,88,71,46,29.97,29.89,1,0,7,0.01
2013-10-30,73,58,46,51,47,43,92,68,37,30.03,29.94,2,0,6,0.01
2013-10-31,82,62,46,47,42,36,82,55,19,30.06,29.94,1,0,5,0.00
2013-11-1,88,67,48,41,38,30,69,40,13,30.08,29.90,1,0,4,0.00
2013-11-2,86,66,53,55,39,-100,82,42,14,29.96,29.82,3,0,11,0.00
2013-11-3,73,63,56,55,53,50,82,71,48,29.89,29.78,2,0,7,0.00
2013-11-4,71,61,53,56,53,48,88,74,52,29.91,29.77,3,0,7,0.00
2013-11-5,79,61,47,51,42,24,90,56,13,30.11,29.91,2,0,7,0.00
2013-11-6,82,63,44,38,29,15,64,34,8,30.18,30.08,1,0,4,0.00
2013-11-7,87,66,50,37,30,18,48,30,8,30.10,29.95,1,0,3,0.00
2013-11-8,81,63,48,54,40,29,70,46,15,30.00,29.89,1,0,4,0.00
2013-11-9,78,62,47,50,42,-100,86,55,20,30.03,29.95,1,0,7,0.00
2013-11-10,84,62,49,55,42,26,75,53,12,30.09,29.98,2,0,6,0.00
2013-11-11,82,63,47,49,43,36,78,53,22,30.09,29.98,2,0,4,0.00
2013-11-12,79,62,52,50,46,42,81,58,29,30.13,30.02,0,0,2,0.00
2013-11-13,92,72,52,44,37,32,60,32,13,30.03,29.84,1,0,4,0.00
2013-11-14,92,74,58,46,35,24,50,26,9,29.89,29.72,1,0,5,0.00
2013-11-15,72,64,59,57,54,43,85,72,44,29.72,29.62,2,0,7,0.00
2013-11-16,65,60,54,54,49,-100,86,72,55,29.91,29.71,3,0,7,0.00
2013-11-17,72,61,51,54,50,47,90,70,46,30.05,29.91,3,0,8,0.00
2013-11-18,71,59,49,55,50,46,92,75,55,30.12,30.01,1,0,6,0.00
2013-11-19,69,61,54,53,52,49,84,71,56,30.06,29.91,1,0,6,0.00
2013-11-20,68,61,55,55,53,50,88,77,60,29.94,29.84,2,0,6,0.02
2013-11-21,67,59,53,58,55,49,94,85,66,29.85,29.79,3,0,7,0.59
2013-11-22,62,58,51,49,39,36,89,52,40,29.93,29.79,5,2,12,0.02
2013-11-23,68,55,47,44,40,-100,80,60,37,30.06,29.91,0,0,3,0.00
2013-11-24,70,56,44,45,42,39,87,63,38,30.16,30.06,1,0,6,0.00
2013-11-25,74,57,43,47,43,39,87,63,34,30.21,30.12,1,0,7,0.00
2013-11-26,77,61,45,45,42,37,85,54,24,30.16,30.00,1,0,3,0.00
2013-11-27,75,61,51,45,41,36,68,51,25,30.02,29.84,2,0,8,0.00
2013-11-28,71,58,47,47,43,38,78,61,32,30.02,29.85,2,0,9,0.00
2013-11-29,62,57,52,56,51,45,91,83,74,30.15,30.02,2,0,5,0.18
2013-11-30,77,59,48,53,47,-100,95,69,37,30.16,30.03,2,0,5,0.01
2013-12-1,78,62,48,45,40,35,74,49,21,30.19,30.06,1,0,3,0.01
2013-12-2,76,59,46,42,38,33,68,48,24,30.09,29.89,1,0,4,0.00
2013-12-3,66,56,44,53,46,38,84,71,53,29.88,29.71,2,0,6,0.00
2013-12-4,64,53,43,44,34,23,78,51,25,29.93,29.74,3,0,9,0.00
2013-12-5,64,51,42,38,35,29,75,57,31,30.08,29.92,2,0,7,0.00
2013-12-6,61,49,38,42,38,32,81,66,43,30.15,30.06,2,0,7,0.00
2013-12-7,56,48,40,48,40,-100,86,78,71,30.09,29.96,2,0,6,0.04
2013-12-8,59,47,36,38,33,28,76,60,44,30.18,30.06,1,0,7,0.01
2013-12-9,62,46,34,32,25,16,74,46,23,30.27,30.17,1,0,5,0.00
2013-12-10,67,50,34,23,16,8,56,29,10,30.26,30.07,1,0,3,0.00
2013-12-11,72,54,37,27,19,12,55,29,10,30.15,30.07,1,0,4,0.00
2013-12-12,70,54,43,49,34,21,82,51,19,30.18,30.09,1,0,5,0.00
2013-12-13,66,52,40,46,41,36,89,68,39,30.20,30.09,1,0,4,0.00
2013-12-14,73,54,39,40,32,-100,84,52,18,30.26,30.16,1,0,6,0.00
2013-12-15,80,66,41,33,29,25,66,27,14,30.23,30.06,1,0,3,0.00
2013-12-16,85,67,51,42,31,26,47,28,12,30.10,30.01,1,0,3,0.00
2013-12-17,85,69,56,47,36,29,51,33,13,30.09,29.96,1,0,4,0.00
2013-12-18,75,63,57,54,48,38,86,60,32,29.97,29.81,2,0,9,0.00
2013-12-19,57,52,45,52,47,43,94,84,75,29.82,29.68,3,0,7,1.02
2013-12-20,64,51,41,48,43,39,95,77,43,29.92,29.73,1,0,6,0.06
2013-12-21,62,50,41,47,43,-100,92,78,58,30.06,29.90,1,0,6,0.01
2013-12-22,71,55,42,50,46,40,94,74,39,30.24,30.06,2,0,4,0.01
2013-12-23,75,58,43,47,42,39,89,60,28,30.29,30.16,0,0,4,0.01
2013-12-24,78,61,45,46,40,35,82,50,21,30.17,30.05,0,0,3,0.00
2013-12-25,80,60,44,42,34,25,74,43,15,30.16,30.07,1,0,4,0.00
2013-12-26,78,60,43,35,26,14,60,32,9,30.14,30.03,1,0,4,0.00
2013-12-27,83,61,42,34,24,11,58,31,7,30.14,30.00,1,0,5,0.00
2014-1-1,52,51,50,40,39,37,64,63,61,30.06,30.06,0,0,0,0.00
2014-1-2,82,62,46,42,35,28,65,41,14,30.08,29.95,1,0,3,0.00